1373414432568,4.18507
1373414492568,4.19626
1373414552568,4.15649
1373414612568,4.18440
1373414672568,4.16199
1373414732568,4.15327
1373414792568,4.15334
1373414852568,4.18205
1373414912568,4.17849
1373414972568,4.17624
1373415032568,4.16815
1373415092568,4.20093
1373415152568,4.18765
1373415212568,4.13074
1373415272568,4.15802
1373415332568,4.17262
1373415392568,4.17499
1373415452568,4.18141
1373415512568,4.17271
1373415572568,4.12586
1373415632568,4.14983
1373415692568,4.15638
1373415752568,4.15865
1373415812568,4.13714
1373415872568,4.14352
1373415932568,4.16110
1373415992568,4.15170
1373416052568,4.11996
1373416112568,4.15042
1373416172568,4.15941
1373416232568,4.15882
1373416292568,4.14760
1373416352568,4.12852
1373416412568,4.17461
1373416472568,4.13592
1373416532568,4.16347
1373416592568,4.14872
1373416652568,4.13886
1373416712568,4.15406
1373416772568,4.14157
1373416832568,4.13727
1373416892568,4.14927
1373416952568,4.15132
1373417012568,4.14476
1373417072568,4.16360
1373417132568,4.13301
1373417192568,4.16489
1373417252568,4.17935
1373417312568,4.12922
1373417372568,4.19580
1373417432568,4.22827
1373417492568,4.19658
1373417552568,4.19751
1373417612568,4.18291
1373417672568,4.14784
1373417732568,4.16167
1373417792568,4.19536
1373417852568,4.15884
1373417912568,4.16466
1373417972568,4.21016
1373421632587,4.13288
1373421692587,4.18099
1373421752587,4.21169
1373421812587,4.18946
1373421872587,4.16005
1373421932587,4.18520
1373421992587,4.19917
1373422052587,4.17719
1373422112587,4.14766
1373422172587,4.22568
1373422232587,4.18750
1373422292587,4.17880
1373422352587,4.17125
1373422412587,4.13160
1373422472587,4.18353
1373422532587,4.16599
1373422592587,4.17511
1373422652587,4.18816
1373422712587,4.18214
1373422772587,4.13851
1373422832587,4.18204
1373422892587,4.17252
1373422952587,4.18516
1373423012587,4.14511
1373423072587,4.15454
1373423132587,4.15735
1373423192587,4.14647
1373423252587,4.16727
1373423312587,4.17652
1373423372587,4.14893
1373423432587,4.13190
1373423492587,4.16923
1373423552587,4.13677
1373423612587,4.20332
1373423672587,4.21828
1373423732587,4.17792
1373423792587,4.18035
1373423852587,4.18675
1373423912587,4.15620
1373423972587,4.16275
1373424032587,4.15004
1373424092587,4.15461
1373424152587,4.16006
1373424212587,4.12850
1373424272587,4.16303
1373424332587,4.16625
1373424392587,4.15341
1373424452587,4.15380
1373424512587,4.13156
1373424572587,4.14262
1373424632587,4.14410
1373424692587,4.13771
1373424752587,4.15753
1373424812587,4.18154
1373424872587,4.12885
1373424932587,4.14824
1373424992587,4.11799
1373425052587,4.12190
1373425112587,4.14672
1373425172587,4.12646
1373425232597,4.18386
1373425292597,4.16468
1373425352597,4.14353
1373425412597,4.13425
1373425472597,4.12334
1373425532597,4.14152
1373425592597,4.13958
1373425652597,4.13129
1373425712597,4.13652
1373425772597,4.11940
1373425832597,4.13376
1373425892597,4.14333
1373425952597,4.16435
1373426012597,4.11166
1373426072597,4.17462
1373426132597,4.13321
1373426192597,4.13080
1373426252597,4.12167
1373426312597,4.15014
1373426372597,4.13705
1373426432597,4.15181
1373426492597,4.14475
1373426552597,4.13518
1373426612597,4.14307
1373426672597,4.16390
1373426732597,4.13507
1373426792597,4.12212
1373426852597,4.14714
1373426912597,4.14127
1373426972597,4.15460
1373427032597,4.15926
1373427092597,4.17142
1373427152597,4.16302
1373427212597,4.15773
1373427272597,4.13763
1373427332597,4.15535
1373427392597,4.11383
1373427452597,4.15362
1373427512597,4.16962
1373427572597,4.15462
1373427632597,4.18294
1373427692597,4.17166
1373427752597,4.15763
1373427812597,4.16309
1373427872597,4.18595
1373427932597,4.15549
1373427992597,4.12743
1373428052597,4.15060
1373428112597,4.17155
1373428172597,4.15510
1373428232597,4.18423
1373428292597,4.17447
1373428352597,4.17030
1373428412597,4.18944
1373428472597,4.17298
1373428532597,4.22122
1373428592597,4.17772
1373428652597,4.15656
1373428712597,4.17660
1373428772597,4.16740
1373428832606,4.18681
1373428892606,4.20312
1373428952606,4.17407
1373429012606,4.19965
1373429072606,4.19976
1373429132606,4.18710
1373429192606,4.21058
1373429252606,4.20621
1373429312606,4.17942
1373429372606,4.17835
1373429432606,4.20968
1373429492606,4.18085
1373429552606,4.20842
1373429612606,4.14550
1373429672606,4.15788
1373429732606,4.16356
1373429792606,4.21794
1373429852606,4.18892
1373429912606,4.21054
1373429972606,4.20167
1373430032606,4.17549
1373430092606,4.19041
1373430152606,4.17865
1373430212606,4.15928
1373430272606,4.18444
1373430332606,4.16927
1373430392606,4.19274
1373430452606,4.18915
1373430512606,4.20944
1373430572606,4.18009
1373430632606,4.21562
1373430692606,4.19568
1373430752606,4.19526
1373430812606,4.20217
1373430872606,4.17142
1373430932606,4.16974
1373430992606,4.18651
1373431052606,4.23588
1373431112606,4.21278
1373431172606,4.18096
1373431232606,4.16155
1373431292606,4.20205
1373431352606,4.20592
1373431412606,4.19817
1373431472606,4.22216
1373431532606,4.19678
1373431592606,4.22011
1373431652606,4.23026
1373431712606,4.40190
1373431772606,4.21426
1373431832606,4.20434
1373431892606,4.18780
1373431952606,4.21691
1373432012606,4.17620
1373432072606,4.19610
1373432132606,4.20860
1373432192606,4.21139
1373432252606,4.19201
1373432312606,4.18312
1373432372606,4.20498
1373432432615,4.23792
1373432492615,4.20047
1373432552615,4.18267
1373432612615,4.20923
1373432672615,4.20758
1373432732615,4.19476
1373432792615,4.20015
1373432852615,4.17743
1373432912615,4.18576
1373432972615,4.16858
1373433032615,4.15690
1373433092615,4.15421
1373433632615,4.19321
1373433692615,4.17946
1373433752615,4.17059
1373433812615,4.16575
1373433872615,4.18123
1373433932615,4.16852
1373433992615,4.18135
1373434052615,4.16813
1373434112615,4.20472
1373434172615,4.17407
1373434232615,4.17303
1373434292615,4.20338
1373434352615,4.19206
1373434412615,4.23221
1373434472615,4.19513
1373434532615,4.18078
1373434592615,4.20626
1373434652615,4.18856
1373434712615,4.17176
1373434772615,4.19056
1373434832615,4.17788
1373434892615,4.21340
1373434952615,4.20147
1373435012615,4.20229
1373435072615,4.17669
1373435132615,4.21719
1373435192615,4.19762
1373435252615,4.15747
1373435312615,4.21010
1373435372615,4.23974
1373435432615,4.25185
1373435492615,4.21641
1373435552615,4.21088
1373435612615,4.20751
1373435672615,4.21341
1373435732615,4.19381
1373435792615,4.21609
1373435852615,4.21941
1373435912615,4.20007
1373435972615,4.21307
1373436032624,4.19740
1373436092624,4.24911
1373436152624,4.21606
1373436212624,4.24667
1373436272624,4.22971
1373436332624,4.21160
1373436392624,4.20307
1373436452624,4.19645
1373436512624,4.22103
1373436572624,4.22532
1373436632624,4.19697
1373436692624,4.21380
1373436752624,4.24113
1373436812624,4.26854
1373436872624,4.21568
1373436932624,4.20237
1373436992624,4.20573
1373437052624,4.23019
1373437112624,4.22946
1373437172624,4.24669
1373437232624,4.22826
1373437292624,4.29350
1373437352624,4.26041
1373437412624,4.26650
1373437472624,4.26152
1373437532624,4.27596
1373437592624,4.27438
1373437652624,4.35224
1373437712624,4.36155
1373437772624,4.42519
1373437832624,4.45589
1373437892624,4.49500
1373437952624,4.56645
1373438012624,4.66992
1373438072624,4.69679
1373438132624,4.72638
1373438192624,4.75580
1373438252624,4.79344
1373438312624,4.78769
1373438372624,4.80948
1373438432624,4.78413
1373438492624,4.81215
1373438552624,4.81674
1373438612624,4.80557
1373438672624,4.78814
1373438732624,4.80583
1373438792624,4.80644
1373438852624,4.72982
1373438912624,4.74311
1373438972624,4.67175
1373439032624,4.63496
1373439092624,4.62880
1373439152624,4.57168
1373439212624,4.50330
1373439272624,4.55223
1373439332624,4.51266
1373439392624,4.50096
1373439452624,4.53091
1373439512624,4.49920
1373439572624,4.43455
1373439632633,4.43999
1373439692633,4.39384
1373439752633,4.40609
1373439812633,4.34360
1373439872633,4.38291
1373439932633,4.36108
1373439992633,4.35535
1373440052633,4.34651
1373440112633,4.35503
1373440172633,4.33025
1373440232633,4.29416
1373440292633,4.33940
1373440352633,4.32178
1373440412633,4.26666
1373440472633,4.29782
1373440532633,4.24019
1373440592633,4.32633
1373440652633,4.28853
1373440712633,4.27652
1373440772633,4.27626
1373440832633,4.27236
1373440892633,4.27155
1373440952633,4.27072
1373441012633,4.29156
1373441072633,4.24016
1373441132633,4.27877
1373441192633,4.22100
1373441252633,4.24974
1373441312633,4.23859
1373441372633,4.22889
1373441432633,4.24392
1373441492633,4.21882
1373441552633,4.21670
1373441612633,4.18945
1373441672633,4.22350
1373441732633,4.21764
1373441792633,4.21703
1373441852633,4.19858
1373441912633,4.21533
1373441972633,4.23658
1373442032633,4.20153
1373442092633,4.18519
1373442152633,4.20470
1373442212633,4.19824
1373442272633,4.20761
1373442332633,4.17736
1373442392633,4.19185
1373442452633,4.16350
1373442512633,4.15860
1373442572633,4.19678
1373442632633,4.20864
1373442692633,4.18335
1373442752633,4.19809
1373442812633,4.16902
1373442872633,4.18285
1373442932633,4.18692
1373442992633,4.16532
1373443052633,4.20299
1373443112633,4.18032
1373443172633,4.19296
1373443232642,4.20206
1373443292642,4.16497
1373443352642,4.18428
1373443412642,4.18948
1373443472642,4.20259
1373443532642,4.20312
1373443592642,4.17990
1373443652642,4.21915
1373443712642,4.16446
1373443772642,4.19648
1373443832642,4.19770
1373443892642,4.19290
1373443952642,4.20198
1373444012642,4.18834
1373444072642,4.21386
1373444132642,4.18526
1373444192642,4.19580
1373444252642,4.18712
1373444312642,4.21245
1373444372642,4.21320
1373444432642,4.19426
1373444492642,4.18345
1373444552642,4.18790
1373444612642,4.16589
1373444672642,4.16750
1373444732642,4.17161
1373444792642,4.20917
1373444852642,4.17697
1373444912642,4.20907
1373444972642,4.22546
1373445032642,4.21519
1373445092642,4.24102
1373445152642,4.21193
1373445212642,4.19238
1373445272642,4.20761
1373445332642,4.22260
1373445392642,4.24873
1373445452642,4.19381
1373445512642,4.21340
1373445572642,4.21481
1373445632642,4.24829
1373445692642,4.20672
1373445752642,4.22895
1373445812642,4.21086
1373445872642,4.23705
1373445932642,4.23589
1373445992642,4.24421
1373446052642,4.24320
1373446112642,4.24531
1373446172642,4.25977
1373446232642,4.25132
1373446292642,4.23112
1373446352642,4.21020
1373446412642,4.22288
1373446472642,4.22086
1373446532642,4.26251
1373446592642,4.22590
1373446652642,4.20710
1373446712642,4.22359
1373446772642,4.24748
1373446832651,4.22537
1373446892651,4.24520
1373446952651,4.22144
1373447012651,4.22967
1373447072651,4.25564
1373447132651,4.22636
1373447192651,4.21860
1373447252651,4.19167
1373447312651,4.19425
1373447372651,4.18858
1373447432651,4.18787
1373447492651,4.22140
1373447552651,4.20216
1373447612651,4.20445
1373447672651,4.22629
1373447732651,4.18920
1373447792651,4.20162
1373447852651,4.20833
1373447912651,4.23576
1373447972651,4.22160
1373448032651,4.18316
1373448092651,4.18099
1373448152651,4.23609
1373448212651,4.22113
1373448272651,4.19911
1373448332651,4.24725
1373448392651,4.21946
1373448452651,4.21138
1373448512651,4.23507
1373448572651,4.19989
1373448632651,4.24263
1373448692651,4.22050
1373448752651,4.24187
1373448812651,4.21002
1373448872651,4.23985
1373448932651,4.22120
1373448992651,4.19149
1373449052651,4.32897
1373449112651,4.22687
1373449172651,4.20738
1373449232651,4.23107
1373449292651,4.22936
1373449352651,4.21228
1373449412651,4.23142
1373449472651,4.24813
1373449532651,4.21177
1373449592651,4.25651
1373449652651,4.26912
1373449712651,4.19931
1373449772651,4.23125
1373449832651,4.24194
1373449892651,4.22215
1373449952651,4.25159
1373450012651,4.22001
1373450072651,4.22126
1373450132651,4.25602
1373450192651,4.23527
1373450252651,4.21570
1373450312651,4.24106
1373450372651,4.22791
1373450432660,4.25466
1373450492660,4.25865
1373450552660,4.27220
1373450612660,4.27545
1373450672660,4.26688
1373450732660,4.26398
1373450792660,4.24642
1373450852660,4.26862
1373450912660,4.23761
1373450972660,4.26328
1373451032660,4.22380
1373451092660,4.21768
1373451152660,4.22472
1373451212660,4.25847
1373451272660,4.19319
1373451332660,4.24551
1373451392660,4.24228
1373451452660,4.25381
1373451512660,4.24346
1373451572660,4.23586
1373451632660,4.23076
1373451692660,4.22925
1373451752660,4.24288
1373451812660,4.23310
1373451872660,4.19248
1373451932660,4.20114
1373451992660,4.24508
1373452052660,4.21199
1373452112660,4.21571
1373452172660,4.24270
1373452232660,4.21982
1373452292660,4.23271
1373452352660,4.24957
1373452412660,4.24243
1373452472660,4.23513
1373452532660,4.19949
1373452592660,4.22484
1373452652660,4.21882
1373452712660,4.22141
1373452772660,4.23844
1373452832660,4.21999
1373452892660,4.22548
1373452952660,4.21439
1373453012660,4.20891
1373453072660,4.24934
1373453132660,4.19635
1373453192660,4.20868
1373453252660,4.25247
1373453312660,4.24121
1373453372660,4.20305
1373453432660,4.23471
1373453492660,4.24473
1373453552660,4.19947
1373453612660,4.20997
1373453672660,4.26472
1373453732660,4.24795
1373453792660,4.21656
1373453852660,4.26117
1373453912660,4.23537
1373453972660,4.23892
1373454032669,4.22454
1373454092669,4.23603
1373454152669,4.22894
1373454212669,4.19387
1373454272669,4.20664
1373454332669,4.22885
1373454392669,4.25033
1373454452669,4.25156
1373454512669,4.22290
1373454572669,4.23763
1373454632669,4.21797
1373454692669,4.19366
1373454752669,4.21403
1373454812669,4.21618
1373454872669,4.21957
1373454932669,4.19600
1373454992669,4.19735
1373455052669,4.22693
1373455112669,4.21627
1373455172669,4.23266
1373455232669,4.21116
1373455292669,4.21184
1373455352669,4.21626
1373455412669,4.24255
1373455472669,4.22097
1373455532669,4.24578
1373455592669,4.22522
1373455652669,4.19617
1373455712669,4.24152
1373455772669,4.22243
1373455832669,4.21066
1373455892669,4.24130
1373455952669,4.20838
1373456012669,4.17518
1373456072669,4.22624
1373456132669,4.18039
1373456192669,4.19570
1373456252669,4.22902
1373456312669,4.22499
1373456372669,4.20005
1373456432669,4.22736
1373456492669,4.25078
1373456552669,4.26384
1373456612669,4.21515
1373456672669,4.24063
1373456732669,4.20616
1373456792669,4.20626
1373456852669,4.21357
1373456912669,4.18526
1373456972669,4.17581
1373457032669,4.22390
1373457092669,4.20123
1373457152669,4.18198
1373457212669,4.20317
1373457272669,4.20808
1373457332669,4.19341
1373457392669,4.22664
1373457452669,4.20848
1373457512669,4.19270
1373457572669,4.20199
1373457632678,4.21009
1373457692678,4.18109
1373457752678,4.19119
1373457812678,4.21969
1373457872678,4.18903
1373457932678,4.22020
1373457992678,4.19955
1373458052678,4.14369
1373458112678,4.21208
1373458172678,4.24141
1373458232678,4.19399
1373458292678,4.18673
1373458352678,4.22045
1373458412678,4.19829
1373458472678,4.19368
1373458532678,4.21132
1373458592678,4.20095
1373458652678,4.20367
1373458712678,4.21467
1373458772678,4.17555
1373458832678,4.22709
1373458892678,4.22353
1373458952678,4.19238
1373459012678,4.20846
1373459072678,4.18820
1373459132678,4.21782
1373459192678,4.23153
1373459252678,4.22049
1373459312678,4.22147
1373459372678,4.21127
1373459432678,4.21938
1373459492678,4.22291
1373459552678,4.24574
1373459612678,4.21047
1373459672678,4.21818
1373459732678,4.24295
1373459792678,4.22174
1373459852678,4.21181
1373459912678,4.22168
1373459972678,4.18823
1373460032678,4.20008
1373460092678,4.24463
1373460152678,4.20529
1373460212678,4.22509
1373460272678,4.18269
1373460332678,4.20509
1373460392678,4.19191
1373460452678,4.21671
1373460512678,4.22099
1373460572678,4.19921
1373460632678,4.23741
1373460692678,4.23850
1373460752678,4.19320
1373460812678,4.20435
1373460872678,4.21787
1373460932678,4.20501
1373460992678,4.20992
1373461052678,4.20965
1373461112678,4.21048
1373461172678,4.17711
1373461232687,4.21298
1373461292687,4.21041
1373461352687,4.23147
1373461412687,4.18851
1373461472687,4.24571
1373461532687,4.24887
1373461592687,4.23435
1373461652687,4.23718
1373461712687,4.20839
1373461772687,4.22445
1373461832687,4.20942
1373461892687,4.21506
1373461952687,4.24292
1373462012687,4.22693
1373462072687,4.24808
1373462132687,4.19688
1373462192687,4.22048
1373462252687,4.24908
1373462312687,4.24089
1373462372687,4.18253
1373462432687,4.21947
1373462492687,4.21338
1373462552687,4.22360
1373462612687,4.22872
1373462672687,4.20753
1373462732687,4.21412
1373462792687,4.19677
1373462852687,4.20812
1373462912687,4.24641
1373462972687,4.23294
1373463032687,4.23077
1373463092687,4.19272
1373463152687,4.21790
1373463212687,4.20906
1373463272687,4.19247
1373463332687,4.21903
1373463392687,4.21358
1373463452687,4.18785
1373463512687,4.21013
1373463572687,4.23363
1373463632687,4.19463
1373463692687,4.22900
1373463752687,4.22825
1373463812687,4.24028
1373463872687,4.20446
1373463932687,4.21561
1373463992687,4.26158
1373464052687,4.24812
1373464112687,4.23729
1373464172687,4.24160
1373464232687,4.25072
1373464292687,4.20855
1373464352687,4.27607
1373464412687,4.25179
1373464472687,4.25922
1373464532687,4.22437
1373464592687,4.22230
1373464652687,4.25787
1373464712687,4.25292
1373464772687,4.22377
1373464832696,4.26331
1373464892696,4.23929
1373464952696,4.21496
1373465012696,4.22080
1373465072696,4.26995
1373465132696,4.25851
1373465192696,4.25373
1373465252696,4.23213
1373465312696,4.23799
1373465372696,4.21211
1373465432696,4.26424
1373465492696,4.25555
1373465552696,4.24696
1373465612696,4.24258
1373465672696,4.22715
1373465732696,4.20445
1373465792696,4.23429
1373465852696,4.25303
1373465912696,4.24060
1373465972696,4.26244
1373466032696,4.23277
1373466092696,4.23422
1373466152696,4.21398
1373466212696,4.23891
1373466272696,4.20407
1373466332696,4.26325
1373466392696,4.21975
1373466452696,4.25697
1373466512696,4.26117
1373466572696,4.19827
1373466632696,4.21603
1373466692696,4.22882
1373466752696,4.20022
1373466812696,4.24993
1373466872696,4.25368
1373466932696,4.25283
1373466992696,4.25985
1373467052696,4.21010
1373467112696,4.23524
1373467172696,4.24119
1373467232696,4.22338
1373467292696,4.24736
1373467352696,4.21933
1373467412696,4.20772
1373467472696,4.23950
1373467532696,4.27243
1373467592696,4.24305
1373467652696,4.25938
1373467712696,4.23976
1373467772696,4.25903
1373467832696,4.24640
1373467892696,4.22941
1373467952696,4.25870
1373468012696,4.24103
1373468072696,4.27727
1373468132696,4.22642
1373468192696,4.23940
1373468252696,4.24426
1373468312696,4.26930
1373468372696,4.22949
1373468432705,4.25914
1373468492705,4.19907
1373468552705,4.24010
1373468612705,4.20413
1373468672705,4.22258
1373468732705,4.20095
1373468792705,4.22939
1373468852705,4.21789
1373468912705,4.21315
1373468972705,4.21257
1373469032705,4.23660
1373469092705,4.20920
1373469152705,4.25729
1373469212705,4.21125
1373469272705,4.18309
1373469332705,4.23709
1373469392705,4.21917
1373469452705,4.20843
1373469512705,4.21551
1373469572705,4.20620
1373469632705,4.20250
1373469692705,4.24301
1373469752705,4.19099
1373469812705,4.24951
1373469872705,4.21206
1373469932705,4.24511
1373469992705,4.22587
1373470052705,4.25235
1373470112705,4.24830
1373470172705,4.25937
1373470232705,4.23552
1373470292705,4.23486
1373470352705,4.24178
1373470412705,4.23254
1373470472705,4.25466
1373470532705,4.22905
1373470592705,4.22531
1373470652705,4.23274
1373470712705,4.24533
1373470772705,4.27636
1373470832705,4.22366
1373470892705,4.24334
1373470952705,4.21399
1373471012705,4.23081
1373471072705,4.23205
1373471132705,4.25818
1373471192705,4.23645
1373471252705,4.17929
1373471312705,4.24552
1373471372705,4.20883
1373471432705,4.23291
1373471492705,4.24690
1373471552705,4.21915
1373471612705,4.23815
1373471672705,4.21604
1373471732705,4.22646
1373471792705,4.25602
1373471852705,4.21491
1373471912705,4.24228
1373471972705,4.20800
1373472032715,4.23551
1373472092715,4.25100
1373472152715,4.22693
1373472212715,4.25392
1373472272715,4.25152
1373472332715,4.23968
1373472392715,4.25118
1373472452715,4.26859
1373472512715,4.22727
1373472572715,4.24349
1373472632715,4.23278
1373472692715,4.26651
1373472752715,4.23977
1373472812715,4.23288
1373472872715,4.23757
1373472932715,4.25109
1373472992715,4.22690
1373473052715,4.20033
1373473112715,4.21441
1373473172715,4.28395
1373473232715,4.25566
1373473292715,4.24409
1373473352715,4.24427
1373473412715,4.25872
1373473472715,4.23596
1373473532715,4.26494
1373473592715,4.26357
1373473652715,4.27007
1373473712715,4.24361
1373473772715,4.24339
1373473832715,4.27159
1373473892715,4.25610
1373473952715,4.25502
1373474012715,4.24868
1373474072715,4.26935
1373474132715,4.24567
1373474192715,4.27013
1373474252715,4.64360
1373474312715,4.24200
1373474372715,4.26421
1373474432715,4.26437
1373474492715,4.23435
1373474552715,4.28984
1373474612715,4.25623
1373474672715,4.26597
1373474732715,4.23403
1373474792715,4.25393
1373474852715,4.27029
1373474912715,4.24819
1373474972715,4.27128
1373475032715,4.23681
1373475092715,4.26527
1373475152715,4.24166
1373475212715,4.24475
1373475272715,4.27878
1373475332715,4.25311
1373475392715,4.26184
1373475452715,4.26012
1373475512715,4.25538
1373475572715,4.26755
1373475632725,4.28775
1373475692725,4.25298
1373475752725,4.27040
1373475812725,4.29362
1373475872725,4.22324
1373475932725,4.27081
1373475992725,4.26267
1373476052725,4.26635
1373476112725,4.26147
1373476172725,4.24912
1373476232725,4.25715
1373476292725,4.26683
1373476352725,4.24834
1373476412725,4.26602
1373476472725,4.24802
1373476532725,4.21711
1373476592725,4.23445
1373476652725,4.26930
1373476712725,4.23543
1373476772725,4.26758
1373476832725,4.26431
1373476892725,4.25269
1373476952725,4.23219
1373477012725,4.25222
1373477072725,4.29586
1373477132725,4.26795
1373477192725,4.26949
1373477252725,4.26432
1373477312725,4.25147
1373477372725,4.27292
1373477432725,4.28661
1373477492725,4.26567
1373477552725,4.28183
1373477612725,4.28247
1373477672725,4.25501
1373477732725,4.25072
1373477792725,4.24988
1373477852725,4.24662
1373477912725,4.26766
1373477972725,4.24541
1373478032725,4.24546
1373478092725,4.24953
1373478152725,4.27456
1373478212725,4.27466
1373478272725,4.25039
1373478332725,4.24676
1373478392725,4.27846
1373478452725,4.24613
1373478512725,4.25411
1373478572725,4.28649
1373478632725,4.23548
1373478692725,4.28620
1373478752725,4.29910
1373478812725,4.31137
1373478872725,4.25387
1373478932725,4.28506
1373478992725,4.26557
1373479052725,4.26486
1373479112725,4.29786
1373479172725,4.29595
1373479232735,4.25106
1373479292735,4.26789
1373479352735,4.27248
1373479412735,4.28124
1373479472735,4.28541
1373479532735,4.27702
1373479592735,4.31116
1373479652735,4.26604
1373479712735,4.28295
1373479772735,4.26706
1373479832735,4.28821
1373479892735,4.27435
1373479952735,4.28745
1373480012735,4.28464
1373480072735,4.25963
1373480132735,4.27177
1373480192735,4.29812
1373480252735,4.28048
1373480312735,4.29799
1373480372735,4.27813
1373480432735,4.30135
1373480492735,4.30481
1373480552735,4.28217
1373480612735,4.26366
1373480672735,4.29601
1373480732735,4.28665
1373480792735,4.27358
1373480852735,4.27270
1373480912735,4.28820
1373480972735,4.26253
1373481032735,4.28887
1373481092735,4.28297
1373481152735,4.28905
1373481212735,4.29202
1373481272735,4.25960
1373481332735,4.25757
1373481392735,4.23493
1373481452735,4.28239
1373481512735,4.28515
1373481572735,4.29235
1373481632735,4.27883
1373481692735,4.26922
1373481752735,4.24003
1373481812735,4.28008
1373481872735,4.25734
1373481932735,4.29656
1373481992735,4.25485
1373482052735,4.26696
1373482112735,4.29157
1373482172735,4.24538
1373482232735,4.29169
1373482292735,4.26335
1373482352735,4.24821
1373482412735,4.25160
1373482472735,4.27377
1373482532735,4.26183
1373482592735,4.24908
1373482652735,4.26814
1373482712735,4.27400
1373482772735,4.23627
1373482832746,4.28397
1373482892746,4.27444
1373482952746,4.24854
1373483012746,4.24619
1373483072746,4.25728
1373483132746,4.28968
1373483192746,4.27111
1373483252746,4.27080
1373483312746,4.21916
1373483372746,4.26277
1373483432746,4.21533
1373483492746,4.23773
1373483552746,4.27071
1373483612746,4.26352
1373483672746,4.27169
1373483732746,4.29093
1373483792746,4.29627
1373483852746,4.27305